Warrenton, VA

11:19 AM EDT on April 25, 2018 (GMT -0400)
Warrenton

Weather History for KHWY - September, 2012

Change the Weather History Date:

Wednesday, September 26, 2012

  Actual Average (KHEF) Record (KHEF)
Temperature  
Mean Temperature 73 °F -  
Max Temperature 86 °F 72 °F 91 °F (2007)
Min Temperature 60 °F 50 °F 39 °F (2001)
Cooling Degree Days 8    
Growing Degree Days 23 (Base 50)    
Moisture  
Dew Point 65 °F    
Average Humidity 79    
Maximum Humidity 100    
Minimum Humidity 55    
Precipitation  
Precipitation 0.00 in - - ()
Sea Level Pressure  
Sea Level Pressure 30.11 in    
Wind  
Wind Speed 6 mph (SSW)    
Max Wind Speed 13 mph    
Max Gust Speed 20 mph    
Visibility 10 miles    
Events Thunderstorm    
Averages and records for this station are not official NWS values.
T = Trace of Precipitation, MM = Missing Value Source: NWS Daily Summary

Daily Weather History Graph

Daily Weather History Graph

Search for Another Location

Airport or City:

Astronomy

Sep. 26, 2012 Rise Set
Actual Time 7:02 AM EDT 7:00 PM EDT
Civil Twilight 6:36 AM EDT 7:27 PM EDT
Nautical Twilight 6:05 AM EDT 7:57 PM EDT
Astronomical Twilight 5:33 AM EDT 8:29 PM EDT
Moon 4:57 PM EDT (9/26) 3:28 AM EDT (9/26)
Length of Visible Light 12h 51m
Length of Day
11h 58m
Waxing Gibbous, 88% of the Moon is Illuminated
Sep 26
Waxing Gibbous
Sep 29
Full
Oct 8
Last Quarter
Oct 15
New
Oct 21
First Quarter

Hourly Weather History & Observations

Time (EDT) Temp. Heat Index Dew Point Humidity Pressure Visibility Wind Dir Wind Speed Gust Speed Precip Events Conditions
12:35 AM 66.2 °F - 60.8 °F 83% 30.12 in 10.0 mi South 5.8 mph - N/A   Scattered Clouds
1:15 AM 67.1 °F - 60.8 °F 80% 30.12 in 10.0 mi South 8.1 mph - N/A   Mostly Cloudy
1:35 AM 66.7 °F - 60.8 °F 81% 30.12 in 10.0 mi South 6.9 mph - N/A   Scattered Clouds
2:15 AM 65.7 °F - 60.8 °F 84% 30.11 in 10.0 mi South 8.1 mph - N/A   Scattered Clouds
2:35 AM 65.3 °F - 60.8 °F 85% 30.10 in 10.0 mi SSW 6.9 mph - N/A   Scattered Clouds
2:55 AM 64.9 °F - 61.0 °F 87% 30.11 in 10.0 mi SSW 4.6 mph - N/A   Scattered Clouds
3:15 AM 64.2 °F - 61.0 °F 89% 30.10 in 10.0 mi SSW 6.9 mph - N/A Thunderstorm Scattered Clouds
3:35 AM 63.1 °F - 60.8 °F 92% 30.11 in 10.0 mi SSW 4.6 mph - N/A   Clear
3:55 AM 63.1 °F - 60.8 °F 92% 30.10 in 10.0 mi South 4.6 mph - N/A   Clear
4:15 AM 62.6 °F - 60.8 °F 94% 30.10 in 10.0 mi Calm Calm - N/A   Clear
4:35 AM 62.6 °F - 61.0 °F 94% 30.10 in 10.0 mi South 4.6 mph - N/A   Scattered Clouds
4:55 AM 62.4 °F - 60.8 °F 94% 30.09 in 10.0 mi SSW 4.6 mph - N/A   Mostly Cloudy
5:15 AM 62.4 °F - 61.0 °F 95% 30.10 in 10.0 mi SSW 3.5 mph - N/A   Clear
5:35 AM 62.1 °F - 61.0 °F 96% 30.10 in 10.0 mi SSW 4.6 mph - N/A   Clear
5:55 AM 61.7 °F - 60.8 °F 97% 30.10 in 10.0 mi SSW 5.8 mph - N/A   Clear
6:15 AM 61.7 °F - 60.8 °F 97% 30.11 in 10.0 mi SW 5.8 mph - N/A   Clear
6:35 AM 61.7 °F - 60.8 °F 97% 30.10 in 10.0 mi SSW 3.5 mph - N/A   Clear
6:55 AM 60.8 °F - 60.6 °F 99% 30.11 in 10.0 mi Calm Calm - N/A   Clear
7:15 AM 60.8 °F - 60.8 °F 100% 30.11 in 10.0 mi SSW 4.6 mph - N/A   Clear
7:35 AM 61.0 °F - 60.8 °F 99% 30.12 in 10.0 mi SSW 3.5 mph - N/A   Clear
7:55 AM 61.9 °F - 61.3 °F 98% 30.13 in 10.0 mi Calm Calm - N/A   Clear
8:35 AM 63.7 °F - 62.1 °F 94% 30.14 in 10.0 mi SW 5.8 mph - N/A   Clear
8:55 AM 64.9 °F - 62.4 °F 92% 30.15 in 10.0 mi SW 3.5 mph - N/A   Clear
9:15 AM 66.6 °F - 62.8 °F 88% 30.14 in 10.0 mi SSW 4.6 mph - N/A   Clear
9:35 AM 68.4 °F - 63.3 °F 84% 30.13 in 10.0 mi South 5.8 mph - N/A   Clear
9:55 AM 70.7 °F - 64.0 °F 79% 30.12 in 10.0 mi SSW 6.9 mph - N/A   Clear
10:15 AM 71.6 °F - 64.4 °F 78% 30.12 in 10.0 mi South 5.8 mph - N/A   Clear
10:35 AM 73.0 °F - 65.3 °F 77% 30.13 in 10.0 mi SW 6.9 mph - N/A   Clear
10:55 AM 74.5 °F - 65.5 °F 73% 30.14 in 10.0 mi SSW 9.2 mph - N/A   Clear
11:15 AM 76.5 °F - 66.4 °F 71% 30.15 in 10.0 mi SSW 3.5 mph - N/A   Clear
11:35 AM 76.8 °F - 66.0 °F 69% 30.15 in 10.0 mi SW 9.2 mph - N/A   Clear
12:35 PM 79.2 °F - 67.6 °F 68% 30.13 in 10.0 mi South 8.1 mph - N/A   Clear
12:55 PM 79.0 °F - 67.6 °F 68% 30.12 in 10.0 mi South 9.2 mph - N/A   Clear
1:15 PM 81.7 °F 84.7 °F 68.4 °F 64% 30.11 in 10.0 mi South 8.1 mph - N/A   Clear
1:35 PM 84.2 °F 87.6 °F 68.4 °F 59% 30.10 in 10.0 mi South 8.1 mph 16.1 mph N/A   Clear
2:15 PM 85.3 °F 88.2 °F 67.3 °F 55% 30.09 in 10.0 mi SSW 8.1 mph 16.1 mph N/A   Clear
2:35 PM 85.1 °F 87.9 °F 67.1 °F 55% 30.08 in 10.0 mi South 10.4 mph - N/A   Clear
2:55 PM 84.6 °F 87.4 °F 67.3 °F 56% 30.08 in 10.0 mi SSW 8.1 mph - N/A   Clear
3:17 PM 86.0 °F 89.4 °F 68.0 °F 55% 30.08 in 10.0 mi SSW 10.4 mph 18.4 mph N/A   Clear
3:37 PM 86.0 °F 89.4 °F 68.0 °F 55% 30.07 in 10.0 mi SSE 11.5 mph - N/A   Clear
3:57 PM 86.0 °F 89.4 °F 68.0 °F 55% 30.07 in 10.0 mi SSW 10.4 mph - N/A   Clear
4:15 PM 85.3 °F 88.8 °F 68.4 °F 57% 30.07 in 10.0 mi SSW 4.6 mph - N/A   Scattered Clouds
4:35 PM 86.2 °F 89.7 °F 68.5 °F 55% 30.07 in 10.0 mi SW 12.7 mph 18.4 mph N/A   Scattered Clouds
4:55 PM 85.6 °F 89.4 °F 68.9 °F 57% 30.07 in 10.0 mi South 9.2 mph - N/A   Clear
5:15 PM 85.1 °F 89.1 °F 69.1 °F 59% 30.07 in 10.0 mi SSW 8.1 mph - N/A   Clear
5:35 PM 84.2 °F 87.9 °F 69.1 °F 60% 30.07 in 10.0 mi South 6.9 mph - N/A   Clear
6:15 PM 82.2 °F 85.8 °F 69.4 °F 65% 30.08 in 10.0 mi South 6.9 mph - N/A   Clear
6:35 PM 80.8 °F 83.9 °F 69.4 °F 68% 30.09 in 10.0 mi South 4.6 mph - N/A   Clear
6:55 PM 79.3 °F - 69.1 °F 71% 30.09 in 10.0 mi South 3.5 mph - N/A   Clear
7:15 PM 77.9 °F - 68.9 °F 74% 30.09 in 10.0 mi South 3.5 mph - N/A   Clear
7:35 PM 76.6 °F - 68.9 °F 77% 30.09 in 10.0 mi South 3.5 mph - N/A   Clear
7:55 PM 75.6 °F - 68.5 °F 79% 30.10 in 10.0 mi Calm Calm - N/A   Clear
8:15 PM 74.8 °F - 68.7 °F 81% 30.10 in 10.0 mi Calm Calm - N/A   Clear
8:35 PM 73.0 °F - 68.2 °F 85% 30.11 in 10.0 mi Calm Calm - N/A   Clear
8:55 PM 71.1 °F - 67.5 °F 88% 30.11 in 10.0 mi SSW 3.5 mph - N/A   Clear
9:35 PM 70.7 °F - 67.8 °F 91% 30.12 in 10.0 mi Calm Calm - N/A   Clear
9:55 PM 70.5 °F - 68.0 °F 92% 30.13 in 10.0 mi Calm Calm - N/A   Clear
10:15 PM 71.1 °F - 68.0 °F 90% 30.14 in 10.0 mi Calm Calm - N/A   Clear
10:35 PM 70.9 °F - 68.0 °F 91% 30.15 in 10.0 mi Calm Calm - N/A   Clear
10:55 PM 72.9 °F - 67.1 °F 82% 30.17 in 10.0 mi North 12.7 mph 19.6 mph N/A Thunderstorm Mostly Cloudy
11:15 PM 72.0 °F - 64.4 °F 77% 30.14 in 10.0 mi SE 8.1 mph - N/A   Mostly Cloudy
11:35 PM 69.8 °F - 64.0 °F 82% 30.13 in 10.0 mi SE 5.8 mph - N/A   Scattered Clouds
11:55 PM 70.5 °F - 63.9 °F 79% 30.14 in 10.0 mi NNE 3.5 mph - N/A   Clear